Weather History for Bangkok (Don Mueang), Thailand

Change the Weather History Date:

Saturday, November 3, 2012

  Actual Average Record
Temperature  
Mean Temperature 88 °F -  
Max Temperature 96 °F 88 °F 96 °F (2012)
Min Temperature 80 °F 74 °F 69 °F (1999)
Cooling Degree Days 23    
Growing Degree Days 38 (Base 50)    
Moisture  
Dew Point 75 °F    
Average Humidity 68    
Maximum Humidity 84    
Minimum Humidity 40    
Precipitation  
Precipitation 0.00 in 0.04 in - ()
Sea Level Pressure  
Sea Level Pressure 29.82 in    
Wind  
Wind Speed 1 mph ()    
Max Wind Speed 8 mph    
Max Gust Speed -    
Visibility 5.0 miles    
Events      
Averages and records for this station are not official NWS values.
T = Trace of Precipitation, MM = Missing Value Source: Averaged Metar Reports

Daily Weather History Graph

Daily Weather History Graph

Search for Another Location

Airport:

Trip Planner

Search our weather history database for the weather conditions in past years. The results will help you decide how hot, cold, wet, or windy it might be!

Date:

Astronomy

Nov. 03, 2012 Rise Set
Actual Time 6:12 AM ICT 5:49 PM ICT
Civil Twilight 5:50 AM ICT 6:11 PM ICT
Nautical Twilight 5:25 AM ICT 6:36 PM ICT
Astronomical Twilight 5:00 AM ICT 7:01 PM ICT
Moon 9:17 PM ICT (11/3) 9:36 AM ICT (11/3)
Length of Visible Light 12h 20m
Length of Day
11h 36m
Waning Gibbous, 84% of the Moon is Illuminated
Nov 3
Waning Gibbous
Nov 7
Last Quarter
Nov 14
New
Nov 20
First Quarter
Nov 28
Full

Hourly Weather History & Observations

Time (ICT) Temp. Heat Index Dew Point Humidity Pressure Visibility Wind Dir Wind Speed Gust Speed Precip Events Conditions
12:00 AM 84.2 °F 92.3 °F 75.2 °F 74% 29.83 in 5.0 mi Calm Calm - N/A   Mostly Cloudy
12:30 AM 84.2 °F 90.9 °F 73.4 °F 70% 29.83 in 5.0 mi Calm Calm - N/A   Mostly Cloudy
1:00 AM 83 °F - 74 °F 69% 29.83 in 5 mi Calm Calm - -   Mist
1:00 AM 84.2 °F 92.3 °F 75.2 °F 74% 29.80 in 5.0 mi Calm Calm - N/A   Mostly Cloudy
1:30 AM 82.4 °F 89.5 °F 75.2 °F 79% 29.80 in 5.0 mi Calm Calm - N/A   Mostly Cloudy
2:00 AM 82.4 °F 89.5 °F 75.2 °F 79% 29.80 in 4.3 mi Calm Calm - N/A   Mostly Cloudy
2:30 AM 82.4 °F 89.5 °F 75.2 °F 79% 29.80 in 4.3 mi Calm Calm - N/A   Mostly Cloudy
3:00 AM 82.4 °F 89.5 °F 75.2 °F 79% 29.80 in 4.3 mi Calm Calm - N/A   Mostly Cloudy
3:30 AM 82.4 °F 89.5 °F 75.2 °F 79% 29.77 in 4.3 mi Calm Calm - N/A   Mostly Cloudy
4:00 AM 82.4 °F 89.5 °F 75.2 °F 79% 29.77 in 4.3 mi Calm Calm - N/A   Mostly Cloudy
4:30 AM 80.6 °F 86.2 °F 75.2 °F 84% 29.77 in 4.3 mi Calm Calm - N/A   Mostly Cloudy
5:00 AM 80.6 °F 86.2 °F 75.2 °F 84% 29.77 in 4.3 mi WNW 2.3 mph - N/A   Mostly Cloudy
5:30 AM 80.6 °F 86.2 °F 75.2 °F 84% 29.80 in 4.3 mi NW 3.5 mph - N/A   Mostly Cloudy
6:00 AM 80.6 °F 86.2 °F 75.2 °F 84% 29.80 in 3.7 mi NNW 3.5 mph - N/A   Scattered Clouds
6:30 AM 80.6 °F 86.2 °F 75.2 °F 84% 29.83 in 3.1 mi WNW 3.5 mph - N/A   Scattered Clouds
7:00 AM 80 °F - 75 °F 81% 29.84 in 3 mi Calm Calm - -   Mist
7:00 AM 80.6 °F 86.2 °F 75.2 °F 84% 29.83 in 3.1 mi Calm Calm - N/A   Scattered Clouds
7:30 AM 80.6 °F 86.2 °F 75.2 °F 84% 29.83 in 3.7 mi North 4.6 mph - N/A   Scattered Clouds
8:00 AM 80.6 °F 86.2 °F 75.2 °F 84% 29.83 in 3.7 mi NNW 3.5 mph - N/A   Scattered Clouds
8:30 AM 82.4 °F 90.9 °F 77.0 °F 84% 29.86 in 3.7 mi Calm Calm - N/A   Scattered Clouds
9:00 AM 82.4 °F 90.9 °F 77.0 °F 84% 29.89 in 3.7 mi Calm Calm - N/A   Scattered Clouds
9:30 AM 86.0 °F 95.1 °F 75.2 °F 70% 29.89 in 4.3 mi Calm Calm - N/A   Scattered Clouds
10:00 AM 87.8 °F 97.6 °F 75.2 °F 66% 29.89 in 5.0 mi Calm Calm - N/A   Scattered Clouds
10:30 AM 87.8 °F 97.6 °F 75.2 °F 66% 29.86 in 5.0 mi East 2.3 mph - N/A   Scattered Clouds
11:00 AM 89.6 °F 98.2 °F 73.4 °F 59% 29.86 in 5.6 mi SE 3.5 mph - N/A   Scattered Clouds
11:30 AM 89.6 °F 98.2 °F 73.4 °F 59% 29.86 in 6.2 mi SE 3.5 mph - N/A   Scattered Clouds
12:00 PM 91.4 °F 100.1 °F 73.4 °F 55% 29.83 in 6.2 mi ENE 3.5 mph - N/A   Scattered Clouds
12:30 PM 93.2 °F 102.4 °F 73.4 °F 52% 29.83 in 6.2 mi ESE 5.8 mph - N/A   Mostly Cloudy
1:00 PM 94 °F - 72 °F 40% 29.83 in 6 mi East 2.3 mph - -   Scattered Clouds
1:00 PM 93.2 °F 100.5 °F 71.6 °F 49% 29.83 in 6.2 mi East 2.3 mph - N/A   Mostly Cloudy
1:30 PM 93.2 °F 102.4 °F 73.4 °F 52% 29.80 in 6.2 mi SE 8.1 mph - N/A   Mostly Cloudy
2:00 PM 95.0 °F 103.2 °F 71.6 °F 47% 29.77 in 6.2 mi East 8.1 mph - N/A   Mostly Cloudy
2:30 PM 96.8 °F 107.3 °F 73.4 °F 47% 29.77 in 6.2 mi NE 8.1 mph - N/A   Scattered Clouds
3:00 PM 96.8 °F 107.3 °F 73.4 °F 47% 29.77 in 6.2 mi NE 2.3 mph - N/A   Scattered Clouds
3:30 PM 93.2 °F 102.4 °F 73.4 °F 52% 29.77 in 6.2 mi North 6.9 mph - N/A   Scattered Clouds
4:00 PM 91.4 °F 100.1 °F 73.4 °F 55% 29.77 in 6.2 mi ENE 5.8 mph - N/A   Scattered Clouds
4:30 PM 91.4 °F 100.1 °F 73.4 °F 55% 29.77 in 6.2 mi NE 6.9 mph - N/A   Scattered Clouds
5:00 PM 91.4 °F 102.5 °F 75.2 °F 59% 29.77 in 6.2 mi North 6.9 mph - N/A   Mostly Cloudy
5:30 PM 89.6 °F 99.8 °F 75.2 °F 62% 29.77 in 6.2 mi North 6.9 mph - N/A   Mostly Cloudy
6:00 PM 89.6 °F 102.2 °F 77.0 °F 66% 29.80 in 5.6 mi West 2.3 mph - N/A   Mostly Cloudy
6:30 PM 89.6 °F 99.8 °F 75.2 °F 62% 29.80 in 5.0 mi Calm Calm - N/A   Scattered Clouds
7:00 PM 89 °F - 76 °F 57% 29.83 in 5 mi Calm Calm - -   Mist
7:00 PM 87.8 °F 97.6 °F 75.2 °F 66% 29.83 in 5.0 mi Calm Calm - N/A   Scattered Clouds
7:30 PM 87.8 °F 97.6 °F 75.2 °F 66% 29.83 in 5.0 mi WNW 2.3 mph - N/A   Scattered Clouds
8:00 PM 87.8 °F 97.6 °F 75.2 °F 66% 29.83 in 5.0 mi West 3.5 mph - N/A   Scattered Clouds
8:30 PM 87.8 °F 97.6 °F 75.2 °F 66% 29.86 in 5.0 mi Calm Calm - N/A   Scattered Clouds
9:00 PM 87.8 °F 97.6 °F 75.2 °F 66% 29.86 in 5.0 mi Calm Calm - N/A   Scattered Clouds
9:30 PM 86.0 °F 93.4 °F 73.4 °F 66% 29.86 in 5.0 mi Calm Calm - N/A   Scattered Clouds
10:00 PM 86.0 °F 93.4 °F 73.4 °F 66% 29.86 in 5.0 mi Calm Calm - N/A   Scattered Clouds
10:30 PM 86.0 °F 93.4 °F 73.4 °F 66% 29.86 in 5.0 mi Calm Calm - N/A   Scattered Clouds
11:00 PM 84.2 °F 90.9 °F 73.4 °F 70% 29.86 in 5.0 mi Calm Calm - N/A   Scattered Clouds
11:30 PM 84.2 °F 90.9 °F 73.4 °F 70% 29.86 in 5.0 mi Calm Calm - N/A   Scattered Clouds